User: anonymous   Login
Location: Oshawa
(43.9000°N, 78.8670°W)
Time: 19:27:15
(UTC-05:00)
Language:

CARTOSAT-1 - Orbit

View from above orbital plane
View from above orbital plane
View from above satellite
View from above satellite

Ground track
Ground track

The orbit data is extracted from the following two-line orbital elements,

1 28649U 05017A   15 57.55471005  .00000983  00000-0  11960-3 0  9997
2 28649 097.8078 131.3589 0000432 148.4458 211.7270 14.83490601531200
Epoch (UTC): 26 February 2015 13:18:46
Eccentricity: 0.0000432
inclination: 97.8078°
perigee height: 618 km
apogee height: 618 km
right ascension of ascending node: 131.3589°
argument of perigee: 148.4458°
revolutions per day: 14.83490601
mean anomaly at epoch: 211.7270°
orbit number at epoch: 53120

The dashed part of the orbit path shows where the satellite is in the earth's shadow,  

DLR